Pontianak, Indonesia

11:56 AM WIB on February 10, 2016 (GMT +0700)
Supadio

Weather History for WIOO - September, 2013

Change the Weather History Date:

Sunday, September 8, 2013

  Actual Average Record
Temperature  
Mean Temperature 81 °F -  
Max Temperature 89 °F - - ()
Min Temperature 73 °F - - ()
Cooling Degree Days 16    
Growing Degree Days 31 (Base 50)    
Moisture  
Dew Point 74 °F    
Average Humidity 76    
Maximum Humidity 100    
Minimum Humidity 47    
Precipitation  
Precipitation 0.04 in - - ()
Sea Level Pressure  
Sea Level Pressure 29.82 in    
Wind  
Wind Speed 3 mph ()    
Max Wind Speed 8 mph    
Max Gust Speed -    
Visibility 5.4 miles    
Events Rain    
T = Trace of Precipitation, MM = Missing Value Source: Averaged Metar Reports

Daily Weather History Graph

Daily Weather History Graph

Search for Another Location

Airport or City:

Trip Planner

Search our weather history database for the weather conditions in past years. The results will help you decide how hot, cold, wet, or windy it might be!

Date:

Astronomy

Sep. 08, 2013 Rise Set
Actual Time 5:36 AM WIB 5:43 PM WIB
Civil Twilight 5:16 AM WIB 6:04 PM WIB
Nautical Twilight 4:52 AM WIB 6:28 PM WIB
Astronomical Twilight 4:27 AM WIB 6:52 PM WIB
Moon 7:29 AM WIB (9/8) 7:53 PM WIB (9/8)
Length of Visible Light 12h 47m
Length of Day
12h 06m
Waxing Crescent, 8% of the Moon is Illuminated
Sep 8
Waxing Crescent
Sep 13
First Quarter
Sep 19
Full
Sep 27
Last Quarter
Oct 5
New

Hourly Weather History & Observations

Time (WIB) Temp. Heat Index Dew Point Humidity Pressure Visibility Wind Dir Wind Speed Gust Speed Precip Events Conditions
1:00 AM 74 °F - 73 °F 97% 29.86 in 4 mi SSE 3.5 mph - - Rain Light Rain
4:00 AM 74 °F - 73 °F 97% 29.83 in 4 mi Calm Calm - -   Mostly Cloudy
5:00 AM 73.4 °F - 73.4 °F 100% 29.80 in 3.7 mi ESE 3.5 mph - N/A   Mostly Cloudy
5:30 AM 73.4 °F - 73.4 °F 100% 29.83 in 3.7 mi East 4.6 mph - N/A   Mostly Cloudy
6:00 AM 73.4 °F - 73.4 °F 100% 29.83 in 5.0 mi East 3.5 mph - N/A   Scattered Clouds
6:30 AM 73.4 °F - 73.4 °F 100% 29.83 in 5.0 mi Calm Calm - N/A   Scattered Clouds
7:00 AM 75 °F - 73 °F 90% 29.86 in 6 mi East 3.5 mph - -   Scattered Clouds
7:00 AM 75.2 °F - 73.4 °F 94% 29.83 in 6.2 mi East 3.5 mph - N/A   Partly Cloudy
7:30 AM 77.0 °F - 73.4 °F 89% 29.86 in 6.2 mi East 3.5 mph - N/A   Partly Cloudy
8:00 AM 78.8 °F - 73.4 °F 83% 29.86 in 6.2 mi East 6.9 mph - N/A   Partly Cloudy
8:30 AM 80.6 °F 85.4 °F 73.4 °F 79% 29.89 in 6.2 mi SE 5.8 mph - N/A   Scattered Clouds
9:00 AM 82.4 °F 88.2 °F 73.4 °F 74% 29.89 in 6.2 mi East 4.6 mph - N/A   Partly Cloudy
9:30 AM 84.2 °F 92.3 °F 75.2 °F 74% 29.89 in 6.2 mi ESE 4.6 mph - N/A   Scattered Clouds
10:00 AM 83 °F - 72 °F 63% 29.90 in 6 mi SE 3.5 mph - -   Partly Cloudy
10:00 AM 84.2 °F 90.9 °F 73.4 °F 70% 29.89 in 6.2 mi SE 3.5 mph - N/A   Scattered Clouds
10:30 AM 86.0 °F 93.4 °F 73.4 °F 66% 29.86 in 6.2 mi ENE 3.5 mph - N/A   Scattered Clouds
11:00 AM 86.0 °F 93.4 °F 73.4 °F 66% 29.86 in 6.2 mi ENE 4.6 mph - N/A   Scattered Clouds
11:30 AM 87.8 °F 95.6 °F 73.4 °F 62% 32.81 in 6.2 mi South 5.8 mph - N/A   Scattered Clouds
12:00 PM 87.8 °F 93.8 °F 71.6 °F 58% 29.83 in 6.2 mi SE 3.5 mph - N/A   Scattered Clouds
12:30 PM 89.6 °F 96.2 °F 71.6 °F 55% 29.83 in 6.2 mi SSE 4.6 mph - N/A   Scattered Clouds
1:00 PM 89 °F - 71 °F 47% 29.83 in 6 mi South 3.5 mph - -   Partly Cloudy
1:30 PM 89.6 °F 96.2 °F 71.6 °F 55% 29.77 in 6.2 mi SSW 5.8 mph - N/A   Scattered Clouds
2:30 PM 89.6 °F 96.2 °F 71.6 °F 55% 29.77 in 6.2 mi SSW 6.9 mph - N/A   Mostly Cloudy
3:00 PM 89.6 °F 96.2 °F 71.6 °F 55% 29.74 in 6.2 mi South 4.6 mph - N/A   Mostly Cloudy
3:30 PM 89.6 °F 96.2 °F 71.6 °F 55% 29.74 in 6.2 mi West 8.1 mph - N/A   Mostly Cloudy
4:00 PM 88 °F - 73 °F 53% 29.76 in 6 mi West 6.9 mph - -   Mostly Cloudy
4:00 PM 87.8 °F 95.6 °F 73.4 °F 62% 29.74 in 6.2 mi West 6.9 mph - N/A   Mostly Cloudy
4:30 PM 86.0 °F 93.4 °F 73.4 °F 66% 29.74 in 6.2 mi West 3.5 mph - N/A   Mostly Cloudy
5:00 PM 86.0 °F 93.4 °F 73.4 °F 66% 29.77 in 6.2 mi SW 3.5 mph - N/A   Scattered Clouds
5:30 PM 86.0 °F 93.4 °F 73.4 °F 66% 29.77 in 6.2 mi West 3.5 mph - N/A   Scattered Clouds
6:30 PM 82.4 °F 89.5 °F 75.2 °F 79% 29.80 in 4.3 mi West 4.6 mph - N/A   Scattered Clouds
7:00 PM 80.6 °F 87.1 °F 77.0 °F 89% 29.80 in 3.7 mi West 4.6 mph - N/A   Scattered Clouds
7:30 PM 80.6 °F 87.1 °F 77.0 °F 89% 29.83 in 3.7 mi WSW 3.5 mph - N/A   Scattered Clouds
8:00 PM 80.6 °F 87.1 °F 77.0 °F 89% 29.83 in 3.7 mi Calm Calm - N/A   Scattered Clouds
8:30 PM 78.8 °F - 77.0 °F 94% 29.86 in 3.7 mi Calm Calm - N/A   Scattered Clouds
9:00 PM 78.8 °F - 77.0 °F 94% 29.86 in 3.7 mi Calm Calm - N/A   Scattered Clouds
9:30 PM 78.8 °F - 77.0 °F 94% 29.86 in 3.7 mi Calm Calm - N/A   Scattered Clouds